Weather History for KPRC - February, 2014

Change the Weather History Date:

Tuesday, February 18, 2014

  Actual Average Record
Temperature  
Mean Temperature 52 °F 42 °F  
Max Temperature 69 °F 55 °F 71 °F (1981)
Min Temperature 35 °F 29 °F 16 °F (1955)
Degree Days  
Heating Degree Days 13    
Month to date heating degree days  
Since 1 July heating degree days 2755  
Cooling Degree Days 0    
Month to date cooling degree days  
Year to date cooling degree days 0  
Growing Degree Days 1 (Base 50)    
Moisture  
Dew Point 21 °F    
Average Humidity 33    
Maximum Humidity 59    
Minimum Humidity 15    
Precipitation  
Precipitation 0.00 in 0.05 in 0.45 in (2005)
Month to date precipitation T 0.85  
Year to date precipitation 0.05 1.97  
Sea Level Pressure  
Sea Level Pressure 29.95 in    
Wind  
Wind Speed 4 mph (SSW)    
Max Wind Speed 12 mph    
Max Gust Speed 14 mph    
Visibility 10 miles    
Events      
T = Trace of Precipitation, MM = Missing Value Source: NWS Daily Summary

Daily Weather History Graph

Daily Weather History Graph

Search for Another Location

Airport or City:

Trip Planner

Search our weather history database for the weather conditions in past years. The results will help you decide how hot, cold, wet, or windy it might be!

Date:

Astronomy

Feb. 18, 2014 Rise Set
Actual Time 7:11 AM MST 6:15 PM MST
Civil Twilight 6:46 AM MST 6:41 PM MST
Nautical Twilight 6:16 AM MST 7:10 PM MST
Astronomical Twilight 5:47 AM MST 7:40 PM MST
Moon 10:01 PM MST (2/18) 8:56 AM MST (2/18)
Length of Visible Light 11h 55m
Length of Day
11h 03m
Waning Gibbous, 87% of the Moon is Illuminated
Feb 18
Waning Gibbous
Feb 22
Last Quarter
Mar 1
New
Mar 8
First Quarter
Mar 16
Full

Hourly Weather History & Observations

Time (MST) Temp. Windchill Dew Point Humidity Pressure Visibility Wind Dir Wind Speed Gust Speed Precip Events Conditions
12:53 AM 46.9 °F - 21.0 °F 36% 29.94 in 10.0 mi NNE 4.6 mph - N/A   Clear
1:53 AM 41.0 °F 36.4 °F 23.0 °F 49% 29.94 in 10.0 mi South 6.9 mph - N/A   Clear
2:53 AM 39.9 °F 35.8 °F 21.9 °F 49% 29.93 in 10.0 mi SSW 5.8 mph - N/A   Clear
3:53 AM 41.0 °F 37.1 °F 21.9 °F 47% 29.93 in 10.0 mi South 5.8 mph - N/A   Clear
4:53 AM 39.9 °F - 21.9 °F 49% 29.95 in 10.0 mi Calm Calm - N/A   Clear
5:53 AM 36.0 °F 32.1 °F 21.9 °F 57% 29.98 in 10.0 mi South 4.6 mph - N/A   Clear
6:53 AM 37.0 °F 33.3 °F 23.0 °F 57% 30.01 in 10.0 mi SSW 4.6 mph - N/A   Clear
7:53 AM 37.9 °F 33.5 °F 24.1 °F 57% 30.03 in 10.0 mi SSW 5.8 mph - N/A   Clear
8:53 AM 48.9 °F - 27.0 °F 43% 30.01 in 10.0 mi SSW 8.1 mph - N/A   Clear
9:53 AM 52.0 °F - 26.1 °F 37% 30.00 in 10.0 mi North 3.5 mph - N/A   Clear
10:53 AM 59.0 °F - 26.1 °F 28% 29.98 in 10.0 mi East 3.5 mph - N/A   Clear
11:53 AM 64.0 °F - 17.1 °F 16% 29.97 in 10.0 mi Calm Calm - N/A   Clear
12:53 PM 66.0 °F - 18.0 °F 16% 29.95 in 10.0 mi North 6.9 mph - N/A   Clear
1:53 PM 66.0 °F - 18.0 °F 16% 29.93 in 10.0 mi NNW 4.6 mph - N/A   Clear
2:53 PM 66.9 °F - 18.0 °F 15% 29.91 in 10.0 mi Variable 4.6 mph - N/A   Clear
3:53 PM 66.9 °F - 17.1 °F 15% 29.89 in 10.0 mi Calm Calm - N/A   Clear
4:53 PM 66.0 °F - 17.1 °F 15% 29.90 in 10.0 mi WSW 10.4 mph - N/A   Clear
5:53 PM 62.1 °F - 16.0 °F 17% 29.93 in 10.0 mi SW 6.9 mph - N/A   Clear
6:53 PM 59.0 °F - 19.0 °F 21% 29.95 in 10.0 mi SSW 4.6 mph - N/A   Clear
7:53 PM 57.0 °F - 21.0 °F 25% 29.96 in 10.0 mi SSW 9.2 mph - N/A   Clear
8:53 PM 55.0 °F - 21.9 °F 28% 29.94 in 10.0 mi SSW 6.9 mph - N/A   Clear
9:53 PM 53.1 °F - 21.9 °F 30% 29.94 in 10.0 mi SSW 9.2 mph - N/A   Clear
10:53 PM 48.9 °F - 19.9 °F 32% 29.93 in 10.0 mi NE 4.6 mph - N/A   Clear
11:53 PM 45.0 °F 40.6 °F 25.0 °F 46% 29.91 in 10.0 mi South 8.1 mph - N/A   Clear